Flag for Brazil Weather past 2 weeks in Brasilia, Distrito Federal, Brazil

Now
77 °F

Passing clouds.


Feels Like: 79 °F
Forecast: N/A
Wind: 2 mph from South

Location: Brasilia Aeroporto


UV Index: N/A

Visibility: N/A


Pressure: 30.04 "Hg

Humidity: 65%

Dew point: 64 °F

Location of BrasiliaLocation

Historic Weather in Brasilia

°F

Brasilia temperature yesterday

Maximum temperature yesterday: 86 °F (at 4:00 PM)
Minimum temperature yesterday: 70 °F (at 3:00 AM)
Average temperature yesterday: 77 °F

Past Weeks' High & Low Weather Summary

 TemperatureHumidityPressure
High86 °F (Apr 7, 2:00 PM)100% (Apr 1, 10:00 PM)30.18 "Hg (Apr 1, 10:00 PM)
Low34 °F (Apr 1, 10:00 PM)40% (Apr 14, 2:00 PM)29.95 "Hg (Apr 9, 4:00 PM)
Average75 °F72%30.08 "Hg
* Reported Apr 1 6:00 PM — Apr 16 6:00 PM, Brasilia, Weather by CustomWeather, © 2014

Note: Actual official high and low records may vary slightly from our data, if they occured in-between our weather recording intervals... More about our weather records

Advertising

Historic Weather Conditions — Data for Previous 24 hours

 ConditionsComfort  
Time TempWeatherWind HumidityBarometerVisibility
6:00 PM
Apr 16
77 °FPartly sunny.5 mph61%30.04 "HgN/A
5:00 PM77 °FPartly sunny.6 mph65%30.04 "HgN/A
4:00 PM79 °FPartly sunny.6 mph58%30.04 "HgN/A
3:00 PM79 °FPartly sunny.6 mph51%30.04 "HgN/A
2:00 PM79 °FBroken clouds.8 mph58%30.04 "HgN/A
1:00 PM77 °FPartly sunny.6 mph65%30.07 "HgN/A
12:00 PM75 °FBroken clouds.3 mph69%30.12 "HgN/A
11:00 AM73 °FBroken clouds.5 mph74%30.15 "HgN/A
10:00 AM72 °FBroken clouds.9 mph78%30.15 "HgN/A
9:00 AM72 °FBroken clouds.7 mph78%30.15 "HgN/A
8:00 AM70 °FPartly sunny.3 mph83%30.09 "HgN/A
7:00 AM68 °FScattered clouds.5 mph88%30.09 "HgN/A
6:00 AM68 °FThundershowers. Partly cloudy.3 mph88%30.07 "HgN/A
5:00 AM72 °FThundershowers. Partly cloudy.8 mph78%30.07 "HgN/A
4:00 AM72 °FPassing clouds.3 mph78%30.04 "HgN/A
3:00 AM72 °FPassing clouds.2 mph78%30.04 "HgN/A
2:00 AM70 °FPassing clouds.2 mph78%30.04 "HgN/A
1:00 AM72 °FPassing clouds.5 mph78%30.07 "HgN/A
12:00 AM72 °FThundershowers. Passing clouds.8 mph78%N/AN/A
11:00 PM
Apr 15
72 °FThundershowers. Partly cloudy.8 mph78%N/AN/A
10:00 PM75 °FThundershowers. Partly cloudy.7 mph74%N/AN/A
8:00 PM79 °FThundershowers. Passing clouds.5 mph61%N/AN/A
7:00 PM79 °FPartly cloudy.5 mph61%30.01 "HgN/A
Weather by CustomWeather, © 2014

See weather overview